{"data":{"norad_id":66605,"epoch":"2026-09-19T16:30:01.865376Z","epoch_age_seconds":157231,"freshness":"FRESH","line1":"1 66605U 25270T   26262.68752159  .00001679  00000+0  70511-4 0  9990","line2":"2 66605  43.0020  40.7223 0001249 280.1224  79.9487 15.27582564 47377","mean_motion":15.27582564,"eccentricity":0.0001249,"inclination_deg":43.002,"raan_deg":40.7223,"arg_perigee_deg":280.1224,"mean_anomaly_deg":79.9487,"bstar":7.0511e-5,"rev_number":4737,"period_min":94.266590489835,"perigee_km":482.18445732752,"apogee_km":483.89837969647,"semimajor_km":6861.178418512,"source":"CELESTRAK","updated_at":"2026-09-21T09:00:35.979268Z"}}